Omaha Offutt, NE

6:19 AM CST on November 22, 2017 (GMT -0600)
Offutt Air Force Base

Weather History for KOFF - March, 2013

Change the Weather History Date:

Saturday, March 23, 2013

  Actual Average Record
Temperature  
Mean Temperature 34 °F -  
Max Temperature 39 °F 52 °F 75 °F (2003)
Min Temperature 28 °F 31 °F 14 °F (2014)
Degree Days  
Heating Degree Days 32    
Moisture  
Dew Point 29 °F    
Average Humidity 89    
Maximum Humidity 100    
Minimum Humidity 53    
Precipitation  
Precipitation 0.02 in - - ()
Sea Level Pressure  
Sea Level Pressure 30.09 in    
Wind  
Wind Speed 7 mph (NNE)    
Max Wind Speed 13 mph    
Max Gust Speed 21 mph    
Visibility 5 miles    
Events Rain , Snow    
Averages and records for this station are not official NWS values.
T = Trace of Precipitation, MM = Missing Value Source: NWS Daily Summary

Daily Weather History Graph

Daily Weather History Graph

Search for Another Location

Airport or City:

Trip Planner

Search our weather history database for the weather conditions in past years. The results will help you decide how hot, cold, wet, or windy it might be!

Date:

Astronomy

Mar. 23, 2013 Rise Set
Actual Time 7:21 AM CDT 7:39 PM CDT
Civil Twilight 6:53 AM CDT 8:06 PM CDT
Nautical Twilight 6:21 AM CDT 8:39 PM CDT
Astronomical Twilight 5:48 AM CDT 9:12 PM CDT
Moon 4:05 PM CDT (3/23) 5:00 AM CDT (3/23)
Length of Visible Light 13h 12m
Length of Day
12h 17m
Waxing Gibbous, 85% of the Moon is Illuminated
Mar 23
Waxing Gibbous
Mar 27
Full
Apr 2
Last Quarter
Apr 10
New
Apr 18
First Quarter

Hourly Weather History & Observations

Time (CDT) Temp. Windchill Dew Point Humidity Pressure Visibility Wind Dir Wind Speed Gust Speed Precip Events Conditions
12:55 AM 32.5 °F - 20.8 °F 62% 30.08 in 10.0 mi Calm Calm - N/A   Overcast
1:55 AM 32.4 °F 26.9 °F 22.6 °F 67% 30.07 in 10.0 mi NE 5.8 mph - N/A   Overcast
2:55 AM 31.5 °F 25.8 °F 25.2 °F 78% 30.09 in 10.0 mi NE 5.8 mph - N/A   Overcast
3:55 AM 31.1 °F 24.5 °F 25.5 °F 80% 30.07 in 10.0 mi ENE 6.9 mph - N/A   Overcast
4:55 AM 31.1 °F 24.5 °F 25.5 °F 80% 30.07 in 10.0 mi NE 6.9 mph - N/A   Overcast
5:55 AM 31.3 °F 26.6 °F 26.4 °F 82% 30.09 in 10.0 mi NNE 4.6 mph - N/A   Overcast
6:55 AM 31.1 °F - 27.0 °F 85% 30.10 in 10.0 mi Calm Calm - N/A   Overcast
7:55 AM 30.6 °F 23.1 °F 27.0 °F 86% 30.10 in 10.0 mi NE 8.1 mph - N/A   Mostly Cloudy
8:55 AM 31.3 °F 24.7 °F 26.2 °F 82% 30.11 in 10.0 mi NE 6.9 mph - N/A   Scattered Clouds
9:55 AM 33.3 °F 28.9 °F 26.1 °F 75% 30.14 in 10.0 mi North 4.6 mph - N/A   Mostly Cloudy
10:55 AM 33.8 °F 29.6 °F 25.0 °F 70% 30.14 in 10.0 mi NE 4.6 mph - N/A   Overcast
11:55 AM 36.7 °F 29.4 °F 23.4 °F 59% 30.14 in 10.0 mi NE 10.4 mph - N/A   Overcast
12:55 PM 37.2 °F 29.1 °F 22.6 °F 56% 30.10 in 10.0 mi NNE 12.7 mph - N/A   Overcast
1:55 PM 37.9 °F 30.5 °F 22.3 °F 53% 30.08 in 10.0 mi ENE 11.5 mph - N/A   Scattered Clouds
2:27 PM 37.4 °F 31.4 °F 23.0 °F 56% 30.07 in 10.0 mi NNE 8.1 mph - N/A   Partly Cloudy
2:32 PM 37.4 °F 29.8 °F 23.0 °F 56% 30.06 in 10.0 mi North 11.5 mph - N/A   Scattered Clouds
2:43 PM 39.2 °F 33.6 °F 24.8 °F 56% 30.06 in 10.0 mi NNE 8.1 mph 17.3 mph N/A   Mostly Cloudy
2:55 PM 37.4 °F 30.3 °F 24.4 °F 60% 30.06 in 10.0 mi NE 10.4 mph - 0.00 in Rain Light Rain
3:55 PM 35.1 °F 28.6 °F 28.0 °F 76% 30.06 in 6.0 mi NNE 8.1 mph - 0.00 in Snow Light Snow
4:06 PM 35.6 °F 29.2 °F 28.4 °F 75% 30.06 in 3.0 mi NNE 8.1 mph - N/A Snow Light Snow
4:11 PM 33.8 °F 25.8 °F 30.2 °F 87% 30.06 in 2.5 mi NNE 10.4 mph - N/A Snow Light Snow
4:15 PM 33.8 °F 27.0 °F 30.2 °F 87% 30.06 in 1.8 mi NNE 8.1 mph - N/A Snow Light Snow
4:16 PM 33.8 °F 27.0 °F 30.2 °F 87% 30.06 in 1.8 mi NNE 8.1 mph - N/A Snow Light Snow
4:21 PM 33.8 °F 27.0 °F 30.2 °F 87% 30.07 in 1.8 mi NNE 8.1 mph - N/A Snow Light Snow
4:38 PM 32.0 °F 24.2 °F 32.0 °F 100% 30.07 in 1.8 mi NNE 9.2 mph - N/A Snow Light Snow
4:39 PM 32.0 °F 24.8 °F 32.0 °F 100% 30.07 in 2.0 mi NNE 8.1 mph - N/A Snow Light Snow
4:47 PM 32.0 °F 24.8 °F 32.0 °F 100% 30.07 in 2.5 mi North 8.1 mph - N/A Snow Light Snow
4:54 PM 32.0 °F 24.2 °F 32.0 °F 100% 30.07 in 2.5 mi North 9.2 mph - N/A Snow Light Snow
4:55 PM 32.5 °F 24.8 °F 32.4 °F 99% 30.07 in 2.5 mi North 9.2 mph - 0.00 in Snow Light Snow
4:56 PM 32.0 °F 24.2 °F 32.0 °F 100% 30.07 in 3.0 mi North 9.2 mph - N/A Snow Light Snow
4:58 PM 32.0 °F 23.6 °F 32.0 °F 100% 30.07 in 2.5 mi North 10.4 mph - N/A Snow Light Snow
5:03 PM 32.0 °F 24.2 °F 32.0 °F 100% 30.07 in 2.0 mi North 9.2 mph - N/A Snow Light Snow
5:07 PM 32.0 °F 24.8 °F 32.0 °F 100% 30.07 in 1.8 mi NNE 8.1 mph - N/A Snow Light Snow
5:10 PM 32.0 °F 24.2 °F 32.0 °F 100% 30.07 in 2.0 mi NNE 9.2 mph - N/A Snow Light Snow
5:25 PM 32.0 °F 23.6 °F 32.0 °F 100% 30.07 in 2.0 mi NNE 10.4 mph - N/A Snow Light Snow
5:35 PM 32.0 °F 23.0 °F 32.0 °F 100% 30.08 in 2.5 mi NNE 11.5 mph - N/A Snow Light Snow
5:51 PM 32.0 °F 24.2 °F 32.0 °F 100% 30.07 in 2.0 mi NNE 9.2 mph - N/A Snow Light Snow
5:55 PM 31.5 °F 23.5 °F 31.3 °F 99% 30.07 in 2.0 mi NNE 9.2 mph - 0.00 in Snow Light Snow
6:04 PM 32.0 °F 23.6 °F 32.0 °F 100% 30.07 in 2.5 mi North 10.4 mph - N/A Snow Light Snow
6:17 PM 32.0 °F 23.6 °F 30.2 °F 93% 30.08 in 1.8 mi NNE 10.4 mph 19.6 mph N/A Snow Light Snow
6:22 PM 32.0 °F 22.5 °F 30.2 °F 93% 30.08 in 2.0 mi North 12.7 mph - N/A Snow Light Snow
6:30 PM 32.0 °F 23.6 °F 30.2 °F 93% 30.08 in 3.0 mi North 10.4 mph 20.7 mph N/A Snow Light Snow
6:36 PM 32.0 °F 24.8 °F 30.2 °F 93% 30.08 in 3.0 mi North 8.1 mph - N/A Snow Light Snow
6:39 PM 32.0 °F 24.2 °F 30.2 °F 93% 30.08 in 4.0 mi North 9.2 mph - N/A Snow Light Snow
6:45 PM 32.0 °F 24.2 °F 30.2 °F 93% 30.08 in 4.0 mi NNE 9.2 mph - N/A Snow Light Snow
6:55 PM 31.3 °F 23.3 °F 31.1 °F 99% 30.08 in 5.0 mi North 9.2 mph - 0.00 in   Overcast
6:57 PM 32.0 °F 23.0 °F 30.2 °F 93% 30.08 in 5.0 mi North 11.5 mph - N/A   Overcast
7:10 PM 32.0 °F 23.6 °F 30.2 °F 93% 30.09 in 4.0 mi North 10.4 mph - N/A Snow Light Snow
7:23 PM 30.2 °F 21.3 °F 30.2 °F 100% 30.10 in 4.0 mi North 10.4 mph - N/A Snow Light Snow
7:30 PM 30.2 °F 21.3 °F 30.2 °F 100% 30.10 in 2.5 mi NNE 10.4 mph - N/A Snow Light Snow
7:32 PM 30.2 °F 21.3 °F 30.2 °F 100% 30.10 in 2.5 mi NNE 10.4 mph - N/A Snow Light Snow
7:40 PM 30.2 °F 21.9 °F 30.2 °F 100% 30.10 in 3.0 mi North 9.2 mph - N/A Snow Light Snow
7:41 PM 30.2 °F 22.6 °F 30.2 °F 100% 30.10 in 2.5 mi NNE 8.1 mph - N/A Snow Light Snow
7:45 PM 30.2 °F 21.3 °F 30.2 °F 100% 30.11 in 2.5 mi North 10.4 mph - N/A Snow Light Snow
7:49 PM 30.2 °F 22.6 °F 30.2 °F 100% 30.11 in 1.8 mi North 8.1 mph - N/A Snow Light Snow
7:50 PM 30.2 °F 22.6 °F 30.2 °F 100% 30.11 in 2.0 mi North 8.1 mph - N/A Snow Light Snow
7:55 PM 30.6 °F 21.8 °F 30.4 °F 99% 30.11 in 2.5 mi North 10.4 mph - 0.00 in Snow Light Snow
7:57 PM 30.2 °F 21.9 °F 30.2 °F 100% 30.11 in 3.0 mi North 9.2 mph - N/A Snow Light Snow
8:07 PM 30.2 °F 23.4 °F 30.2 °F 100% 30.12 in 4.0 mi North 6.9 mph - N/A Snow Light Snow
8:17 PM 30.2 °F 22.6 °F 30.2 °F 100% 30.12 in 4.0 mi North 8.1 mph - N/A Snow Light Snow
8:25 PM 30.2 °F 22.6 °F 30.2 °F 100% 30.12 in 4.0 mi North 8.1 mph - N/A Snow Light Snow
8:55 PM 30.0 °F 21.7 °F 29.7 °F 99% 30.11 in 5.0 mi North 9.2 mph - 0.00 in Snow Light Snow
9:31 PM 30.2 °F 21.3 °F 30.2 °F 100% 30.10 in 9.0 mi North 10.4 mph - N/A Snow Light Snow
9:55 PM 29.5 °F 19.3 °F 28.8 °F 97% 30.09 in 5.0 mi North 12.7 mph - 0.00 in Snow Light Snow
10:55 PM 28.9 °F 21.1 °F 27.0 °F 92% 30.10 in 10.0 mi North 8.1 mph - N/A   Mostly Cloudy
11:55 PM 29.7 °F 22.0 °F 26.2 °F 87% 30.10 in 10.0 mi North 8.1 mph - N/A   Overcast